Hourly Data Report for February 11, 2019

MIRAMICHI RCS
NEW BRUNSWICK
Current Station Operator: ECCC - MSC

47°00'34.000" N
65°27'54.000" W
33.00 m
8100989
71744
ACQ

Download Data

Hourly Data (February 2019)
Hourly Data Report for February 11, 2019
TIME
LST
Temp Definition
°C
Dew Point Definition
°C
Rel Hum Definition
%
Precip. Amount Definition
mm

Wind Dir Definition
10's deg

Wind Spd Definition
km/h
Visibility Definition
km
Stn Press Definition
kPa
Hmdx Definition


Wind Chill Definition


Weather Definition


00:00 -12.8 -21.2 49 0.0 29 30   101.30   -23 LegendNANA
01:00 -13.2 -21.4 50 0.0 28 24   101.28   -23 LegendNANA
02:00 -13.5 -21.5 51 0.0 28 20   101.25   -22 LegendNANA
03:00 -13.6 -21.8 50 0.0 29 25   101.20   -23 LegendNANA
04:00 -14.1 -22.5 49 0.0 29 20   101.17   -23 LegendNANA
05:00 -14.6 -22.5 51 0.0 28 22   101.16   -24 LegendNANA
06:00 -15.1 -22.7 52 0.0 28 20   101.15   -24 LegendNANA
07:00 -15.5 -22.9 53 0.0 27 19   101.15   -25 LegendNANA
08:00 -15.5 -23.0 53 0.0 26 20   101.18   -25 LegendNANA
09:00 -14.9 -23.4 48 0.0 29 25   101.19   -25 LegendNANA
10:00 -14.0 -23.3 46 0.0 28 28   101.13   -24 LegendNANA
11:00 -12.8 -23.3 41 0.0 28 30   101.06   -23 LegendNANA
12:00 -11.6 -22.5 40 0.0 27 30   101.00   -22 LegendNANA
13:00 -10.6 -21.5 40 0.0 28 32   100.99   -21 LegendNANA
14:00 -9.6 -21.0 39 0.0 30 26   101.01   -18 LegendNANA
15:00 -9.9 -20.6 42 0.0 30 30   101.02   -19 LegendNANA
16:00 -9.9 -19.9 44 0.0 30 27   101.12   -19 LegendNANA
17:00 -10.6 -19.8 47 0.0 31 18   101.26   -18 LegendNANA
18:00 -12.3 -19.9 53 0.0 30 16   101.36   -20 LegendNANA
19:00 -13.3 -20.5 54 0.0 30 25   101.47   -23 LegendNANA
20:00 -13.8 -21.0 55 0.0 30 15   101.62   -21 LegendNANA
21:00 -14.0 -21.4 54 0.0 30 18   101.72   -22 LegendNANA
22:00 -14.1 -21.4 54 0.0 30 19   101.79   -23 LegendNANA
23:00 -14.6 -21.4 56 0.0 29 12   101.84   -21 LegendNANA

Notes on Data Quality.

Legend

  • E = Estimated
  • M = Missing
  • NA = Not Available*
  • [empty] = Indicates an unobserved value
Date modified: